Miscellaneous Local Product
Issued by NWS Hastings, NE

Home | Current Version | Previous Version | Graphics & Text | Print | Product List | Glossary On
Versions: 1 2 3 4 5 6 7 8 9 10 11 12 13 14 15 16 17 18 19 20 21 22 23 24 25 26 27 28 29 30 31 32 33 34 35 36 37 38 39 40 41 42 43 44 45 46 47 48 49 50
157
AXUS43 KGID 161702
MISGRI

GID CWA HOURLY WEATHER ROUNDUP
NATIONAL WEATHER SERVICE HASTINGS NE
1100 AM CST SAT DEC 16 2017

NOTE: "FAIR" INDICATES FEW OR NO CLOUDS BELOW 12,000 FEET WITH NO
SIGNIFICANT WEATHER AND/OR OBSTRUCTIONS TO VISIBILITY.

...SOUTH CENTRAL NEBRASKA...

CITY           SKY/WX    TMP DP  RH WIND       PRES   REMARKS
GRAND ISLAND   CLOUDY    48  26  42 NE13      29.84R
KEARNEY        MOSUNNY   51  24  34 NE16      29.82R
HASTINGS       SUNNY     49  23  36 NE15      29.82R
ORD            CLOUDY    40  29  64 NW8       29.85R WCI  34
YORK           CLOUDY    46  27  46 NE12      29.83R
AURORA         CLOUDY    48  26  42 NE13      29.83R
LEXINGTON      CLOUDY    48  23  37 NE13      29.82S
HOLDREGE       CLOUDY    51  24  35 NE17      29.79S
HEBRON         SUNNY     45  22  40 CALM      29.82S

...NEBRASKA PANHANDLE...

CITY           SKY/WX    TMP DP  RH WIND       PRES   REMARKS
CHADRON        CLOUDY    36  25  64 N5        29.95R WCI  32
ALLIANCE       CLOUDY    37  23  56 NE13      29.88R WCI  29
SCOTTSBLUFF    CLOUDY    41  22  46 NE15G24   29.88R
SIDNEY         CLOUDY    44  20  38 NE20      29.85R

...WESTERN AND NORTH CENTRAL NEBRASKA...

CITY           SKY/WX    TMP DP  RH WIND       PRES   REMARKS
VALENTINE      PTSUNNY   40  32  73 N14       29.91R WCI  32
AINSWORTH      CLOUDY    38  30  74 N13       29.90R WCI  30
ONEILL         CLOUDY    38  29  70 N12       29.89R WCI  31
BROKEN BOW     CLOUDY    44  26  49 N17       29.85R
IMPERIAL       CLOUDY    43  19  38 NE16      29.82R
NORTH PLATTE   CLOUDY    45  22  40 NE21G28   29.84R
MCCOOK         CLOUDY    48  20  32 NE14      29.80R

...EASTERN NEBRASKA...

CITY           SKY/WX    TMP DP  RH WIND       PRES   REMARKS
NORFOLK        CLOUDY    43  27  53 N10       29.84R
SO SIOUX CITY  PTSUNNY   39  28  64 NW12      29.85R WCI  32
TEKAMAH        MOSUNNY   44  26  49 N9        29.84R
COLUMBUS       MOSUNNY   45  26  47 N10       29.87R
ALBION         CLOUDY    43  30  60 N10       29.85R
OMAHA EPPLEY   CLOUDY    44  23  43 N7        29.85R
OFFUTT AFB     MOSUNNY   43  24  46 CALM      29.85R
MILLARD        CLOUDY    45  25  44 W3        29.84R
LINCOLN        SUNNY     45  23  42 CALM      29.86R
NEBRASKA CITY  SUNNY     44  26  48 SW6       29.84S
BEATRICE       SUNNY     44  26  48 W6        29.84R
FALLS CITY     SUNNY     48  25  40 SW10      29.85R

...NORTHERN KANSAS...

CITY           SKY/WX    TMP DP  RH WIND       PRES   REMARKS
GOODLAND       SUNNY     51  13  21 NE15      29.78R
HILL CITY      SUNNY     48  18  30 NE9       29.79R
NORTON         SUNNY     48  12  23 NE12      29.79R
PHILLIPSBURG   SUNNY     46  18  31 NE6       29.80R
HAYS           SUNNY     43  21  41 SW8       29.79R
RUSSELL        SUNNY     44  23  43 S14       29.79R
CONCORDIA      SUNNY     44  23  43 S10       29.82S
SALINA         SUNNY     48  27  44 S12       29.85S
TOPEKA         SUNNY    N/A N/A N/A S10       29.89S



USA.gov is the U.S. government's official web portal to all federal, state and local government web resources and services.